EW8080 Weather Reports


Display with metric or nautical units.
time (UTC)temp
F
wind
direction
speed
MPH
gust
MPH
rain 1hr
in
rain 24hr
in
rain mn
in
humidity
%
barometer
mb
20260831232023 70 169 6.0 13.0 0.00 0.17 0.17 76 1019.0
20260831231002 70 173 3.0 10.0 0.00 0.17 0.17 75 1019.1
20260831230002 71 180 6.0 13.0 0.00 0.17 0.17 75 1019.2
20260831225023 71 184 5.0 13.0 0.00 0.17 0.17 75 1019.1
20260831224023 71 170 3.0 12.0 0.00 0.17 0.17 75 1019.3
20260831223003 72 176 5.0 12.0 0.00 0.17 0.17 74 1019.2
20260831222023 72 177 7.0 12.0 0.00 0.17 0.17 74 1019.4
20260831221002 72 192 4.0 10.0 0.00 0.17 0.17 75 1019.2
20260831220002 73 182 7.0 10.0 0.00 0.17 0.17 74 1019.2
20260831215003 73 209 5.0 10.0 0.00 0.17 0.17 73 1019.2
20260831214002 74 197 5.0 10.0 0.00 0.17 0.17 71 1019.4
20260831213023 74 162 4.0 11.0 0.00 0.17 0.17 66 1019.2
20260831212003 74 187 2.0 18.0 0.00 0.17 0.17 64 1019.0
20260831211003 75 178 6.0 18.0 0.00 0.17 0.17 62 1019.2
20260831210024 76 175 6.0 14.0 0.00 0.17 0.17 62 1019.0
20260831205003 76 190 6.0 13.0 0.00 0.17 0.17 62 1019.1
20260831204003 77 197 5.0 16.0 0.00 0.17 0.17 61 1019.3
20260831203003 76 177 11.0 16.0 0.00 0.17 0.17 59 1019.1
20260831202003 77 183 6.0 12.0 0.00 0.17 0.17 57 1019.2
20260831201003 78 188 4.0 13.0 0.00 0.17 0.17 57 1019.0
20260831200003 77 194 5.0 13.0 0.00 0.17 0.17 55 1019.4
20260831195003 77 181 8.0 13.0 0.00 0.17 0.17 57 1019.3
20260831194024 77 174 7.0 10.0 0.00 0.17 0.17 58 1019.4
20260831193003 77 196 2.0 10.0 0.00 0.17 0.17 59 1019.3
20260831192003 78 191 4.0 9.0 0.00 0.17 0.17 57 1019.6
20260831191003 78 124 3.0 9.0 0.00 0.17 0.17 59 1019.7
20260831190024 78 154 4.0 10.0 0.00 0.17 0.17 60 1019.8
20260831185003 77 191 5.0 12.0 0.00 0.17 0.17 58 1020.2
20260831184003 77 168 4.0 12.0 0.00 0.17 0.17 58 1019.8
20260831183003 78 186 6.0 9.0 0.00 0.17 0.17 59 1020.0
20260831182004 77 142 4.0 8.0 0.00 0.17 0.17 60 1020.1
20260831181003 77 181 3.0 8.0 0.00 0.17 0.17 61 1020.1
20260831180003 77 122 3.0 10.0 0.00 0.17 0.17 58 1020.1
20260831175003 78 153 5.0 15.0 0.00 0.17 0.17 58 1020.2
20260831174003 78 196 8.0 15.0 0.00 0.17 0.17 58 1020.0
20260831173003 79 180 10.0 15.0 0.00 0.17 0.17 57 1020.3
20260831172003 79 176 5.0 10.0 0.00 0.17 0.17 58 1020.0
20260831171003 80 179 3.0 8.0 0.00 0.17 0.17 57 1020.3
20260831170003 80 23 2.0 10.0 0.00 0.17 0.17 57 1020.5
20260831165024 80 35 4.0 10.0 0.00 0.17 0.17 58 1020.4
20260831164003 80 167 5.0 10.0 0.00 0.17 0.17 56 1020.4
20260831163003 80 145 4.0 8.0 0.00 0.17 0.17 56 1020.5
20260831162003 80 41 4.0 8.0 0.00 0.17 0.17 53 1020.3
20260831161003 80 118 5.0 8.0 0.00 0.17 0.17 59 1020.5
20260831160024 80 44 2.0 8.0 0.00 0.17 0.17 58 1020.7
20260831155003 80 60 2.0 6.0 0.00 0.17 0.17 59 1020.8
20260831154024 80 117 2.0 8.0 0.00 0.17 0.17 60 1020.8
20260831153004 80 338 2.0 8.0 0.00 0.17 0.17 59 1020.9
20260831152003 80 39 3.0 6.0 0.00 0.17 0.17 61 1020.8
20260831151003 80 104 3.0 6.0 0.00 0.17 0.17 63 1021.0
20260831150003 79 120 4.0 8.0 0.00 0.17 0.17 64 1020.8
20260831145003 79 136 4.0 8.0 0.00 0.17 0.17 67 1020.8
20260831144003 77 71 4.0 8.0 0.00 0.17 0.17 68 1020.8
20260831143003 77 346 3.0 7.0 0.00 0.17 0.17 68 1020.8
20260831142003 77 12 4.0 8.0 0.00 0.17 0.17 66 1020.8
20260831141003 76 348 4.0 8.0 0.00 0.17 0.17 72 1020.7
20260831140002 76 59 4.0 8.0 0.00 0.17 0.17 75 1020.6
20260831135002 75 356 4.0 9.0 0.00 0.17 0.17 70 1020.4
20260831134003 75 33 6.0 9.0 0.00 0.17 0.17 69 1020.2
20260831133003 75 314 4.0 7.0 0.00 0.17 0.17 75 1020.3
20260831132003 75 348 3.0 6.0 0.00 0.17 0.17 79 1020.3
20260831131024 74 115 4.0 7.0 0.00 0.17 0.17 78 1020.3
20260831130003 73 32 3.0 7.0 0.00 0.17 0.17 85 1020.4
20260831125002 70 74 3.0 7.0 0.00 0.17 0.17 89 1020.4
20260831124024 69 47 2.0 7.0 0.00 0.17 0.17 91 1020.2
20260831123002 68 10 4.0 7.0 0.00 0.17 0.17 94 1020.1
20260831122002 67 295 4.0 7.0 0.00 0.17 0.17 95 1019.8
20260831121002 67 64 3.0 5.0 0.00 0.17 0.17 95 1020.0
20260831120002 66 80 1.0 3.0 0.00 0.17 0.17 95 1020.2
20260831115002 66 61 2.0 3.0 0.00 0.17 0.17 95 1019.8
20260831114003 66 145 0.0 3.0 0.00 0.17 0.17 95 1020.0
20260831113002 66 159 2.0 3.0 0.00 0.17 0.17 95 1019.6
20260831112002 66 143 0.0 3.0 0.00 0.17 0.17 95 1019.7
20260831111002 66 214 1.0 3.0 0.00 0.17 0.17 96 1019.5
20260831110003 65 61 0.0 3.0 0.00 0.17 0.17 96 1019.4
20260831105002 65 77 0.0 3.0 0.00 0.17 0.17 96 1019.4
20260831104023 65 4 2.0 3.0 0.00 0.17 0.17 95 1019.4
20260831103002 65 6 0.0 3.0 0.00 0.17 0.17 95 1019.2
20260831102002 65 68 0.0 3.0 0.00 0.17 0.17 95 1019.0
20260831101003 65 333 1.0 3.0 0.00 0.17 0.17 95 1018.9
20260831100002 65 47 0.0 3.0 0.00 0.17 0.17 95 1018.8
20260831095002 66 8 1.0 4.0 0.00 0.17 0.17 96 1018.6
20260831094002 65 48 1.0 4.0 0.00 0.17 0.17 96 1018.4
20260831093024 66 48 0.0 5.0 0.00 0.17 0.17 96 1018.4
20260831092003 66 47 2.0 6.0 0.00 0.17 0.17 96 1018.5
20260831091003 66 352 3.0 7.0 0.00 0.17 0.17 96 1018.6
20260831090003 66 345 4.0 8.0 0.00 0.17 0.17 97 1018.4
20260831085002 66 337 4.0 8.0 0.00 0.17 0.17 96 1018.4
20260831084023 66 340 6.0 6.0 0.00 0.17 0.17 96 1018.3
20260831083002 66 341 6.0 6.0 0.00 0.17 0.17 96 1018.2
20260831082002 67 7 3.0 6.0 0.00 0.17 0.17 96 1018.1
20260831081003 67 350 5.0 8.0 0.00 0.17 0.17 95 1018.1
20260831080002 67 6 2.0 8.0 0.00 0.17 0.17 95 1017.8
20260831075003 67 347 6.0 8.0 0.00 0.17 0.17 95 1017.7
20260831074024 68 299 2.0 7.0 0.00 0.17 0.17 95 1017.6
20260831073003 68 350 5.0 7.0 0.00 0.17 0.17 95 1017.5
20260831072003 68 323 4.0 7.0 0.00 0.17 0.17 95 1017.3
20260831071003 68 312 5.0 9.0 0.00 0.17 0.17 95 1017.4
20260831070003 69 336 3.0 9.0 0.00 0.17 0.17 95 1017.3
20260831065003 69 340 2.0 4.0 0.00 0.17 0.17 94 1017.3
20260831064003 69 295 1.0 5.0 0.00 0.17 0.17 94 1017.4
20260831063003 69 302 3.0 5.0 0.00 0.17 0.17 94 1017.2
20260831062003 69 327 1.0 3.0 0.00 0.17 0.17 93 1017.2
20260831061003 69 266 1.0 3.0 0.00 0.17 0.17 93 1017.2
20260831060003 70 69 0.0 2.0 0.00 0.17 0.17 93 1017.0
20260831055003 70 300 0.0 3.0 0.00 0.17 0.17 94 1017.1
20260831054003 70 100 0.0 5.0 0.00 0.17 0.17 94 1017.1
20260831053003 70 163 3.0 5.0 0.01 0.17 0.17 95 1016.9
20260831052003 70 197 0.0 5.0 0.01 0.17 0.17 95 1017.4
20260831051003 70 26 2.0 6.0 0.02 0.17 0.17 95 1017.1
20260831050003 70 11 4.0 6.0 0.17 0.17 0.17 95 1016.9
20260831045003 70 164 2.0 6.0 0.17 0.17 0.17 94 1017.1
20260831044003 70 248 3.0 7.0 0.17 0.17 0.17 93 1017.2
20260831043003 70 210 2.0 7.0 0.17 0.17 0.17 93 1017.2
20260831042003 70 184 2.0 7.0 0.16 0.16 0.16 93 1017.1
20260831041004 70 230 4.0 7.0 0.15 0.15 0.15 93 1017.3
20260831040003 70 189 4.0 7.0 0.00 0.00 0.00 92 1017.4
20260831035024 70 212 3.0 5.0 0.00 0.00 0.00 91 1017.3
20260831034003 70 62 1.0 5.0 0.00 0.00 0.00 91 1017.2
20260831033024 70 181 1.0 7.0 0.00 0.00 0.00 91 1017.3
20260831032003 70 185 3.0 7.0 0.00 0.00 0.00 92 1017.3
20260831031003 70 213 4.0 14.0 0.00 0.00 0.00 92 1017.5
20260831030003 70 233 4.0 14.0 0.00 0.00 0.00 92 1017.6
20260831025003 70 210 4.0 8.0 0.00 0.00 0.00 91 1017.4
20260831024003 70 221 4.0 10.0 0.00 0.00 0.00 91 1017.6
20260831023003 70 212 5.0 13.0 0.00 0.00 0.00 90 1017.3
20260831022024 71 184 5.0 13.0 0.00 0.00 0.00 89 1017.3
20260831021003 71 217 5.0 9.0 0.00 0.00 0.00 88 1017.6
20260831020003 71 216 4.0 9.0 0.00 0.00 0.00 86 1017.6
20260831015003 72 239 3.0 8.0 0.00 0.00 0.00 86 1017.5
20260831014024 72 236 4.0 8.0 0.00 0.00 0.00 85 1017.5
20260831013003 72 217 5.0 11.0 0.00 0.00 0.00 85 1017.4
20260831012003 72 208 3.0 12.0 0.00 0.00 0.00 84 1017.3
20260831011003 72 232 5.0 12.0 0.00 0.00 0.00 85 1017.4
20260831010024 72 213 3.0 9.0 0.00 0.00 0.00 85 1017.2
20260831005003 72 224 5.0 10.0 0.00 0.00 0.00 85 1017.5
20260831004003 72 232 4.0 10.0 0.00 0.00 0.00 84 1017.3
20260831003004 72 210 4.0 10.0 0.00 0.00 0.00 83 1017.3
20260831002003 73 203 4.0 8.0 0.00 0.00 0.00 82 1017.2
20260831001024 73 214 3.0 8.0 0.00 0.00 0.00 81 1017.1
20260831000003 73 215 3.0 8.0 0.00 0.00 0.00 80 1016.8
20260830235003 73 186 2.0 11.0 0.00 0.00 0.00 80 1016.8
20260830234003 73 212 3.0 13.0 0.00 0.00 0.00 79 1016.8
20260830233003 73 211 5.0 13.0 0.00 0.00 0.00 78 1017.0